SVA66 OJAI-OEJN

Flight info

Callsign SVA66
Flight time 1h 43m
Altitude 37000
Route QTR01 L513 MUNRA M449 WEJ T510 RBG B544 NOMDA
Aircraft B77W/H-SDE1E2E3FGHIJ2J3J4J5M1RWXY/LB1D1

Departure

Time 2026-05-07 19:06
Airport Queen Alia International Airport (OJAI)

Arrival

Time 2026-05-07 20:50
Airport King Abdulaziz International Airport (OEJN)
Time Latitude Longitude Altitude Speed Heading
2026-05-07 18:31 31.72420 35.98749 2421 ft 0 kts 158°
2026-05-07 18:51 31.72423 35.98747 2420 ft 4 kts 158°
2026-05-07 18:51 31.72447 35.98735 2420 ft 4 kts 154°
2026-05-07 18:52 31.72469 35.98721 2419 ft 3 kts 142°
2026-05-07 18:52 31.72482 35.98704 2420 ft 2 kts 112°
2026-05-07 18:52 31.72486 35.98684 2420 ft 2 kts 87°
2026-05-07 18:52 31.72485 35.98670 2422 ft 2 kts 82°
2026-05-07 18:53 31.72483 35.98657 2420 ft 2 kts 81°
2026-05-07 18:53 31.72483 35.98655 2420 ft 0 kts 81°
2026-05-07 18:56 31.72483 35.98656 2421 ft 1 kts 81°
2026-05-07 18:56 31.72488 35.98691 2421 ft 6 kts 81°
2026-05-07 18:57 31.72494 35.98739 2421 ft 6 kts 81°
2026-05-07 18:57 31.72501 35.98787 2423 ft 6 kts 81°
2026-05-07 18:57 31.72508 35.98835 2420 ft 6 kts 81°
2026-05-07 18:57 31.72520 35.98882 2421 ft 6 kts 62°
2026-05-07 18:58 31.72552 35.98912 2419 ft 6 kts 20°
2026-05-07 18:58 31.72594 35.98915 2421 ft 6 kts 354°
2026-05-07 18:58 31.72636 35.98913 2420 ft 6 kts 11°
2026-05-07 18:58 31.72666 35.98949 2419 ft 6 kts 65°
2026-05-07 18:59 31.72680 35.99000 2420 ft 7 kts 71°
2026-05-07 18:59 31.72695 35.99051 2421 ft 7 kts 71°
2026-05-07 18:59 31.72705 35.99104 2423 ft 7 kts 80°
2026-05-07 18:59 31.72715 35.99171 2422 ft 9 kts 80°
2026-05-07 19:00 31.72727 35.99251 2422 ft 11 kts 80°
2026-05-07 19:00 31.72740 35.99338 2422 ft 11 kts 80°
2026-05-07 19:00 31.72749 35.99395 2420 ft 11 kts 81°
2026-05-07 19:00 31.72761 35.99482 2421 ft 11 kts 81°
2026-05-07 19:01 31.72773 35.99568 2422 ft 11 kts 81°
2026-05-07 19:01 31.72785 35.99655 2422 ft 11 kts 81°
2026-05-07 19:01 31.72798 35.99741 2420 ft 11 kts 81°
2026-05-07 19:01 31.72810 35.99828 2419 ft 11 kts 80°
2026-05-07 19:02 31.72824 35.99914 2419 ft 11 kts 78°
2026-05-07 19:02 31.72839 36.00000 2421 ft 11 kts 78°
2026-05-07 19:02 31.72852 36.00087 2421 ft 11 kts 81°
2026-05-07 19:02 31.72864 36.00174 2420 ft 11 kts 81°
2026-05-07 19:03 31.72876 36.00261 2421 ft 11 kts 81°
2026-05-07 19:03 31.72888 36.00348 2423 ft 11 kts 81°
2026-05-07 19:03 31.72900 36.00434 2420 ft 11 kts 81°
2026-05-07 19:03 31.72913 36.00521 2422 ft 11 kts 81°
2026-05-07 19:04 31.72925 36.00608 2420 ft 11 kts 80°
2026-05-07 19:04 31.72937 36.00695 2420 ft 11 kts 80°
2026-05-07 19:04 31.72972 36.00770 2421 ft 11 kts 35°
2026-05-07 19:04 31.73046 36.00779 2420 ft 11 kts 356°
2026-05-07 19:05 31.73109 36.00770 2419 ft 9 kts 352°
2026-05-07 19:05 31.73171 36.00760 2419 ft 9 kts 352°
2026-05-07 19:05 31.73227 36.00733 2418 ft 9 kts 306°
2026-05-07 19:05 31.73214 36.00664 2419 ft 9 kts 255°
2026-05-07 19:06 31.73201 36.00562 2420 ft 33 kts 262°
2026-05-07 19:06 31.72870 35.98273 2616 ft 228 kts 261°
2026-05-07 19:06 31.72562 35.96422 4231 ft 225 kts 259°
2026-05-07 19:07 31.72180 35.94698 5419 ft 217 kts 248°
2026-05-07 19:07 31.71340 35.93169 5832 ft 234 kts 219°
2026-05-07 19:07 31.69831 35.92416 6338 ft 242 kts 186°
2026-05-07 19:07 31.68194 35.92641 7250 ft 234 kts 160°
2026-05-07 19:08 31.66764 35.93574 7806 ft 250 kts 146°
2026-05-07 19:08 31.65305 35.94886 8099 ft 273 kts 144°
2026-05-07 19:08 31.63739 35.96222 8715 ft 283 kts 149°
2026-05-07 19:08 31.62016 35.97376 9481 ft 288 kts 156°
2026-05-07 19:09 31.60170 35.98313 10297 ft 291 kts 162°
2026-05-07 19:09 31.58199 35.99093 10715 ft 311 kts 166°
2026-05-07 19:09 31.56014 35.99779 10922 ft 339 kts 169°
2026-05-07 19:09 31.53614 36.00404 11159 ft 364 kts 171°
2026-05-07 19:10 31.51075 36.00977 11825 ft 377 kts 172°
2026-05-07 19:10 31.48465 36.01516 12703 ft 384 kts 173°
2026-05-07 19:10 31.45814 36.02035 13669 ft 390 kts 173°
2026-05-07 19:10 31.43108 36.02550 14535 ft 397 kts 174°
2026-05-07 19:11 31.40392 36.03061 15364 ft 404 kts 173°
2026-05-07 19:11 31.37586 36.03588 16198 ft 411 kts 173°
2026-05-07 19:11 31.34732 36.04125 17040 ft 418 kts 173°
2026-05-07 19:11 31.31845 36.04669 17879 ft 424 kts 173°
2026-05-07 19:12 31.28898 36.05225 18612 ft 432 kts 173°
2026-05-07 19:12 31.25913 36.05788 19331 ft 437 kts 173°
2026-05-07 19:12 31.22897 36.06363 20119 ft 441 kts 173°
2026-05-07 19:12 31.19852 36.06963 20908 ft 446 kts 172°
2026-05-07 19:13 31.16779 36.07577 21650 ft 451 kts 172°
2026-05-07 19:13 31.13673 36.08199 22359 ft 456 kts 172°
2026-05-07 19:13 31.10528 36.08828 23066 ft 461 kts 172°
2026-05-07 19:13 31.07347 36.09461 23763 ft 466 kts 172°
2026-05-07 19:14 31.04134 36.10099 24373 ft 470 kts 172°
2026-05-07 19:14 31.00891 36.10743 24992 ft 473 kts 172°
2026-05-07 19:14 30.97675 36.11379 25610 ft 476 kts 172°
2026-05-07 19:14 30.94355 36.12036 26211 ft 480 kts 173°
2026-05-07 19:15 30.91091 36.12681 26761 ft 483 kts 173°
2026-05-07 19:15 30.87762 36.13339 27303 ft 487 kts 173°
2026-05-07 19:15 30.84411 36.14000 27845 ft 490 kts 173°
2026-05-07 19:15 30.81031 36.14667 28363 ft 494 kts 173°
2026-05-07 19:16 30.77634 36.15339 28865 ft 497 kts 173°
2026-05-07 19:16 30.74221 36.16015 29334 ft 500 kts 173°
2026-05-07 19:16 30.70780 36.16697 29769 ft 503 kts 173°
2026-05-07 19:16 30.67317 36.17383 30184 ft 505 kts 173°
2026-05-07 19:17 30.63854 36.18068 30665 ft 504 kts 173°
2026-05-07 19:17 30.60411 36.18750 31230 ft 500 kts 172°
2026-05-07 19:17 30.56983 36.19428 31854 ft 496 kts 172°
2026-05-07 19:17 30.53581 36.20100 32410 ft 494 kts 172°
2026-05-07 19:18 30.50202 36.20766 32915 ft 492 kts 172°
2026-05-07 19:18 30.46831 36.21430 33414 ft 490 kts 172°
2026-05-07 19:18 30.43517 36.22082 33915 ft 488 kts 172°
2026-05-07 19:18 30.40172 36.22740 34343 ft 487 kts 172°
2026-05-07 19:19 30.36843 36.23394 34707 ft 486 kts 172°
2026-05-07 19:19 30.33498 36.24051 35022 ft 486 kts 172°
2026-05-07 19:19 30.30167 36.24706 35371 ft 486 kts 172°
2026-05-07 19:19 30.26840 36.25359 35762 ft 484 kts 173°
2026-05-07 19:20 30.23527 36.26009 36177 ft 481 kts 173°
2026-05-07 19:20 30.20225 36.26656 36530 ft 480 kts 173°
2026-05-07 19:20 30.16927 36.27314 36838 ft 481 kts 173°
2026-05-07 19:20 30.13626 36.27990 36945 ft 485 kts 173°
2026-05-07 19:21 30.06969 36.29368 37003 ft 485 kts 173°
2026-05-07 19:21 30.00359 36.30734 36995 ft 479 kts 173°
2026-05-07 19:22 29.93801 36.32079 37005 ft 478 kts 173°
2026-05-07 19:22 29.87288 36.33411 36984 ft 478 kts 173°
2026-05-07 19:23 29.80737 36.34749 37003 ft 478 kts 173°
2026-05-07 19:23 29.74177 36.36088 36996 ft 480 kts 173°
2026-05-07 19:24 29.67583 36.37410 36990 ft 480 kts 173°
2026-05-07 19:24 29.60973 36.38607 36976 ft 481 kts 174°
2026-05-07 19:25 29.54345 36.39795 36992 ft 482 kts 174°
2026-05-07 19:25 29.47756 36.40996 36982 ft 482 kts 174°
2026-05-07 19:26 29.41127 36.42205 36968 ft 483 kts 174°
2026-05-07 19:26 29.34497 36.43416 36981 ft 482 kts 174°
2026-05-07 19:27 29.27869 36.44627 36961 ft 482 kts 174°
2026-05-07 19:27 29.21244 36.45835 36968 ft 482 kts 174°
2026-05-07 19:28 29.14620 36.47041 36975 ft 482 kts 174°
2026-05-07 19:28 29.08042 36.48237 36965 ft 481 kts 174°
2026-05-07 19:29 29.01386 36.49431 36973 ft 481 kts 174°
2026-05-07 19:29 28.94804 36.50604 36969 ft 481 kts 174°
2026-05-07 19:30 28.88195 36.51784 36950 ft 480 kts 174°
2026-05-07 19:30 28.81586 36.52964 36964 ft 480 kts 174°
2026-05-07 19:31 28.74984 36.54140 36968 ft 480 kts 174°
2026-05-07 19:31 28.68418 36.55309 36973 ft 480 kts 174°
2026-05-07 19:32 28.61797 36.56487 36952 ft 480 kts 174°
2026-05-07 19:32 28.55183 36.57665 36967 ft 481 kts 174°
2026-05-07 19:33 28.48565 36.58848 36969 ft 481 kts 174°
2026-05-07 19:33 28.41986 36.60022 36968 ft 481 kts 174°
2026-05-07 19:34 28.35352 36.60922 36960 ft 478 kts 181°
2026-05-07 19:34 28.28723 36.60651 36971 ft 476 kts 186°
2026-05-07 19:35 28.22104 36.60216 36973 ft 477 kts 186°
2026-05-07 19:35 28.15510 36.59815 36975 ft 477 kts 185°
2026-05-07 19:36 28.08844 36.59436 36980 ft 477 kts 185°
2026-05-07 19:36 28.02266 36.59070 36986 ft 476 kts 185°
2026-05-07 19:37 27.95638 36.58699 36984 ft 475 kts 185°
2026-05-07 19:37 27.89033 36.58330 36990 ft 475 kts 185°
2026-05-07 19:38 27.82440 36.57960 36991 ft 475 kts 185°
2026-05-07 19:38 27.75836 36.57591 36990 ft 474 kts 185°
2026-05-07 19:39 27.69239 36.57223 36992 ft 474 kts 185°
2026-05-07 19:39 27.62687 36.56857 36990 ft 473 kts 186°
2026-05-07 19:40 27.56105 36.56491 36971 ft 473 kts 186°
2026-05-07 19:40 27.49530 36.56125 36969 ft 472 kts 186°
2026-05-07 19:41 27.42969 36.55761 36965 ft 471 kts 186°
2026-05-07 19:41 27.36414 36.55397 36956 ft 470 kts 186°
2026-05-07 19:42 27.29889 36.55035 36936 ft 469 kts 186°
2026-05-07 19:42 27.23408 36.54676 36936 ft 469 kts 186°
2026-05-07 19:43 27.16897 36.54316 36923 ft 468 kts 186°
2026-05-07 19:43 27.10394 36.53955 36924 ft 467 kts 186°
2026-05-07 19:44 27.03906 36.53591 36921 ft 467 kts 186°
2026-05-07 19:44 26.97431 36.53227 36916 ft 466 kts 186°
2026-05-07 19:45 26.90952 36.52864 36915 ft 465 kts 187°
2026-05-07 19:45 26.84494 36.52503 36916 ft 464 kts 187°
2026-05-07 19:46 26.78046 36.52142 36914 ft 464 kts 187°
2026-05-07 19:46 26.71629 36.51784 36897 ft 463 kts 187°
2026-05-07 19:47 26.65187 36.51425 36902 ft 462 kts 187°
2026-05-07 19:47 26.59846 36.51128 36904 ft 461 kts 187°
2026-05-07 19:48 26.53421 36.50770 36897 ft 461 kts 187°
2026-05-07 19:48 26.47059 36.50416 36877 ft 461 kts 187°
2026-05-07 19:49 26.40666 36.50061 36891 ft 460 kts 187°
2026-05-07 19:49 26.34240 36.49705 36890 ft 463 kts 187°
2026-05-07 19:50 26.27782 36.49346 36891 ft 466 kts 187°
2026-05-07 19:50 26.21299 36.49801 36880 ft 478 kts 166°
2026-05-07 19:51 26.18276 36.51430 36879 ft 490 kts 151°
2026-05-07 19:51 26.15655 36.53827 36887 ft 500 kts 139°
2026-05-07 19:51 26.13583 36.56973 36889 ft 509 kts 124°
2026-05-07 19:51 26.11900 36.60448 36901 ft 510 kts 122°
2026-05-07 19:52 26.08629 36.67464 36894 ft 510 kts 122°
2026-05-07 19:52 26.05291 36.74433 36897 ft 510 kts 123°
2026-05-07 19:53 26.01891 36.81339 36891 ft 508 kts 124°
2026-05-07 19:53 25.98478 36.88218 36898 ft 508 kts 125°
2026-05-07 19:54 25.95068 36.95092 36905 ft 507 kts 125°
2026-05-07 19:54 25.91683 37.01920 36911 ft 507 kts 126°
2026-05-07 19:55 25.88276 37.08781 36890 ft 506 kts 126°
2026-05-07 19:55 25.84876 37.15617 36892 ft 505 kts 126°
2026-05-07 19:56 25.81250 37.22249 36908 ft 495 kts 136°
2026-05-07 19:56 25.76519 37.27587 36869 ft 477 kts 150°
2026-05-07 19:57 25.71127 37.31706 36896 ft 469 kts 155°
2026-05-07 19:57 25.65688 37.35725 36915 ft 470 kts 155°
2026-05-07 19:58 25.60251 37.39791 36922 ft 471 kts 154°
2026-05-07 19:58 25.54819 37.43879 36925 ft 472 kts 154°
2026-05-07 19:59 25.49378 37.47975 36900 ft 473 kts 155°
2026-05-07 19:59 25.43946 37.52059 36888 ft 472 kts 155°
2026-05-07 20:00 25.38540 37.56116 36918 ft 472 kts 155°
2026-05-07 20:00 25.33103 37.60191 36942 ft 473 kts 155°
2026-05-07 20:01 25.27656 37.64270 36929 ft 473 kts 155°
2026-05-07 20:01 25.22201 37.68352 36933 ft 474 kts 155°
2026-05-07 20:02 25.16738 37.72437 36892 ft 474 kts 155°
2026-05-07 20:02 25.11292 37.76514 36915 ft 473 kts 155°
2026-05-07 20:03 25.05885 37.80558 36911 ft 472 kts 155°
2026-05-07 20:03 25.00462 37.84610 36915 ft 470 kts 155°
2026-05-07 20:04 24.95044 37.88653 36911 ft 470 kts 155°
2026-05-07 20:04 24.89630 37.92688 36901 ft 469 kts 155°
2026-05-07 20:05 24.84213 37.96720 36879 ft 469 kts 155°
2026-05-07 20:05 24.78801 38.00746 36867 ft 468 kts 155°
2026-05-07 20:06 24.73432 38.04734 36867 ft 469 kts 155°
2026-05-07 20:06 24.68019 38.08752 36862 ft 469 kts 155°
2026-05-07 20:07 24.62599 38.12771 36854 ft 470 kts 156°
2026-05-07 20:07 24.57172 38.16792 36860 ft 469 kts 155°
2026-05-07 20:08 24.51790 38.20773 36839 ft 469 kts 156°
2026-05-07 20:08 24.46374 38.24777 36824 ft 468 kts 156°
2026-05-07 20:09 24.40980 38.28761 36832 ft 466 kts 156°
2026-05-07 20:10 24.32924 38.34702 36832 ft 464 kts 156°
2026-05-07 20:10 24.27564 38.38650 36832 ft 463 kts 157°
2026-05-07 20:11 24.22236 38.42567 36838 ft 463 kts 157°
2026-05-07 20:11 24.16877 38.46496 36858 ft 464 kts 157°
2026-05-07 20:12 24.11501 38.50434 36893 ft 464 kts 157°
2026-05-07 20:12 24.06126 38.54369 36900 ft 465 kts 157°
2026-05-07 20:13 24.00740 38.58310 36898 ft 466 kts 157°
2026-05-07 20:13 23.95384 38.62224 36902 ft 466 kts 157°
2026-05-07 20:14 23.89977 38.66172 36877 ft 467 kts 157°
2026-05-07 20:14 23.84588 38.70106 36869 ft 464 kts 157°
2026-05-07 20:15 23.79224 38.74016 36888 ft 462 kts 157°
2026-05-07 20:15 23.73792 38.77646 36898 ft 450 kts 165°
2026-05-07 20:16 23.68085 38.80184 36894 ft 435 kts 173°
2026-05-07 20:16 23.62322 38.82084 36912 ft 435 kts 173°
2026-05-07 20:17 23.56523 38.83993 36872 ft 435 kts 173°
2026-05-07 20:17 23.50721 38.85921 36893 ft 435 kts 173°
2026-05-07 20:18 23.44925 38.87857 36894 ft 436 kts 173°
2026-05-07 20:18 23.39117 38.89796 36877 ft 437 kts 173°
2026-05-07 20:19 23.33298 38.91738 36891 ft 437 kts 173°
2026-05-07 20:19 23.27518 38.93663 36868 ft 438 kts 173°
2026-05-07 20:20 23.21689 38.95604 36883 ft 438 kts 173°
2026-05-07 20:20 23.15847 38.97547 36887 ft 439 kts 173°
2026-05-07 20:21 23.09997 38.99491 36879 ft 440 kts 173°
2026-05-07 20:21 23.04178 39.01424 36883 ft 440 kts 173°
2026-05-07 20:22 22.98318 39.03368 36869 ft 439 kts 172°
2026-05-07 20:22 22.92461 39.05309 36609 ft 443 kts 172°
2026-05-07 20:22 22.89470 39.06295 35829 ft 451 kts 172°
2026-05-07 20:23 22.86473 39.07290 35121 ft 450 kts 172°
2026-05-07 20:23 22.83465 39.08286 34288 ft 452 kts 172°
2026-05-07 20:23 22.80422 39.09113 33355 ft 450 kts 176°
2026-05-07 20:23 22.77340 39.09645 32401 ft 449 kts 180°
2026-05-07 20:24 22.74267 39.09897 31455 ft 448 kts 185°
2026-05-07 20:24 22.71197 39.09933 31267 ft 433 kts 185°
2026-05-07 20:24 22.68219 39.10000 31043 ft 422 kts 184°
2026-05-07 20:24 22.65355 39.10099 30819 ft 397 kts 184°
2026-05-07 20:25 22.62703 39.10202 30663 ft 368 kts 184°
2026-05-07 20:25 22.60179 39.10289 30543 ft 357 kts 185°
2026-05-07 20:25 22.57716 39.10366 30354 ft 352 kts 185°
2026-05-07 20:25 22.55205 39.10438 29802 ft 371 kts 184°
2026-05-07 20:26 22.52584 39.10517 29119 ft 380 kts 184°
2026-05-07 20:26 22.49934 39.10594 28430 ft 382 kts 185°
2026-05-07 20:26 22.47262 39.10621 27764 ft 384 kts 185°
2026-05-07 20:26 22.44584 39.10627 27123 ft 386 kts 185°
2026-05-07 20:27 22.41926 39.10629 26497 ft 388 kts 185°
2026-05-07 20:27 22.39223 39.10633 25879 ft 389 kts 185°
2026-05-07 20:27 22.36503 39.10641 25272 ft 391 kts 185°
2026-05-07 20:27 22.33777 39.10653 24682 ft 393 kts 185°
2026-05-07 20:28 22.31035 39.10666 24098 ft 394 kts 185°
2026-05-07 20:28 22.28282 39.10680 23533 ft 396 kts 185°
2026-05-07 20:28 22.25520 39.10694 22841 ft 397 kts 185°
2026-05-07 20:28 22.22729 39.10707 21945 ft 403 kts 184°
2026-05-07 20:29 22.19911 39.10721 21159 ft 407 kts 184°
2026-05-07 20:29 22.17067 39.10737 20391 ft 410 kts 184°
2026-05-07 20:29 22.14246 39.10752 19654 ft 411 kts 183°
2026-05-07 20:29 22.11378 39.10767 18913 ft 412 kts 183°
2026-05-07 20:30 22.08538 39.10503 18186 ft 407 kts 197°
2026-05-07 20:30 22.05918 39.09467 17447 ft 397 kts 204°
2026-05-07 20:30 22.03353 39.08372 16748 ft 396 kts 202°
2026-05-07 20:30 22.00779 39.07328 16056 ft 395 kts 202°
2026-05-07 20:31 21.98197 39.06307 15380 ft 394 kts 201°
2026-05-07 20:31 21.95632 39.05303 14776 ft 392 kts 201°
2026-05-07 20:31 21.93096 39.04313 14346 ft 377 kts 201°
2026-05-07 20:31 21.90727 39.03390 13872 ft 347 kts 201°
2026-05-07 20:32 21.88541 39.02536 13417 ft 323 kts 201°
2026-05-07 20:32 21.86495 39.01735 12931 ft 303 kts 201°
2026-05-07 20:32 21.84565 39.00979 12670 ft 290 kts 201°
2026-05-07 20:32 21.82618 39.00215 12716 ft 304 kts 201°
2026-05-07 20:33 21.80590 38.99420 12537 ft 314 kts 201°
2026-05-07 20:33 21.78513 38.98725 12260 ft 312 kts 189°
2026-05-07 20:33 21.76348 38.98805 12020 ft 314 kts 168°
2026-05-07 20:33 21.74303 38.99555 11779 ft 313 kts 161°
2026-05-07 20:34 21.72279 39.00406 11546 ft 311 kts 161°
2026-05-07 20:34 21.70261 39.01235 11222 ft 311 kts 161°
2026-05-07 20:34 21.68914 39.01781 10936 ft 312 kts 161°
2026-05-07 20:34 21.66908 39.02588 10485 ft 301 kts 161°
2026-05-07 20:35 21.64369 39.03595 9901 ft 282 kts 161°
2026-05-07 20:35 21.63152 39.04071 9619 ft 282 kts 162°
2026-05-07 20:35 21.61292 39.04794 9200 ft 287 kts 161°
2026-05-07 20:35 21.59398 39.05537 8764 ft 290 kts 161°
2026-05-07 20:36 21.57490 39.06287 8342 ft 292 kts 161°
2026-05-07 20:36 21.55582 39.07036 7927 ft 294 kts 161°
2026-05-07 20:36 21.53654 39.07793 7518 ft 295 kts 160°
2026-05-07 20:36 21.51719 39.08548 7127 ft 295 kts 160°
2026-05-07 20:37 21.49811 39.09299 6776 ft 295 kts 160°
2026-05-07 20:37 21.47889 39.10061 6412 ft 294 kts 160°
2026-05-07 20:37 21.45974 39.10820 6114 ft 292 kts 160°
2026-05-07 20:37 21.44083 39.11567 5864 ft 287 kts 160°
2026-05-07 20:38 21.42220 39.12302 5624 ft 282 kts 160°
2026-05-07 20:38 21.40387 39.13026 5378 ft 278 kts 160°
2026-05-07 20:38 21.38587 39.13741 5136 ft 274 kts 160°
2026-05-07 20:38 21.36808 39.14444 4945 ft 270 kts 160°
2026-05-07 20:39 21.35088 39.15123 4916 ft 256 kts 160°
2026-05-07 20:39 21.33459 39.15767 4965 ft 245 kts 160°
2026-05-07 20:39 21.31847 39.16405 5047 ft 250 kts 160°
2026-05-07 20:39 21.30190 39.17059 5093 ft 258 kts 160°
2026-05-07 20:40 21.28501 39.17725 5093 ft 259 kts 160°
2026-05-07 20:40 21.26856 39.18419 5065 ft 254 kts 152°
2026-05-07 20:40 21.25540 39.19717 5104 ft 260 kts 122°
2026-05-07 20:40 21.24945 39.21538 5118 ft 267 kts 97°
2026-05-07 20:41 21.25109 39.23512 5096 ft 267 kts 74°
2026-05-07 20:41 21.25761 39.25368 5118 ft 267 kts 71°
2026-05-07 20:41 21.26595 39.27131 5081 ft 268 kts 51°
2026-05-07 20:41 21.28108 39.28284 5118 ft 271 kts 20°
2026-05-07 20:42 21.29997 39.28498 5122 ft 277 kts 352°
2026-05-07 20:42 21.31848 39.27897 5108 ft 280 kts 339°
2026-05-07 20:42 21.33674 39.27155 5101 ft 281 kts 339°
2026-05-07 20:42 21.35517 39.26423 4877 ft 284 kts 340°
2026-05-07 20:43 21.37368 39.25697 4633 ft 281 kts 339°
2026-05-07 20:43 21.39125 39.25005 4359 ft 263 kts 339°
2026-05-07 20:43 21.40788 39.24347 4067 ft 246 kts 339°
2026-05-07 20:43 21.42347 39.23731 3776 ft 234 kts 338°
2026-05-07 20:44 21.43843 39.23140 3579 ft 226 kts 338°
2026-05-07 20:44 21.45307 39.22560 3288 ft 222 kts 338°
2026-05-07 20:44 21.46715 39.22004 3160 ft 207 kts 339°
2026-05-07 20:44 21.48021 39.21490 3069 ft 191 kts 338°
2026-05-07 20:45 21.49214 39.21018 3049 ft 180 kts 338°
2026-05-07 20:45 21.50378 39.20557 3020 ft 174 kts 338°
2026-05-07 20:45 21.51488 39.20118 3008 ft 166 kts 339°
2026-05-07 20:45 21.52561 39.19694 2892 ft 169 kts 339°
2026-05-07 20:46 21.53648 39.19265 2669 ft 163 kts 339°
2026-05-07 20:46 21.54678 39.18856 2483 ft 154 kts 340°
2026-05-07 20:46 21.55680 39.18460 2308 ft 153 kts 341°
2026-05-07 20:46 21.56681 39.18063 2118 ft 153 kts 341°
2026-05-07 20:47 21.57666 39.17675 1907 ft 148 kts 341°
2026-05-07 20:47 21.58615 39.17298 1715 ft 141 kts 342°
2026-05-07 20:47 21.59501 39.16946 1573 ft 131 kts 343°
2026-05-07 20:47 21.60353 39.16611 1381 ft 129 kts 341°
2026-05-07 20:48 21.61203 39.16275 1224 ft 131 kts 341°
2026-05-07 20:48 21.62067 39.15933 1045 ft 134 kts 341°
2026-05-07 20:48 21.62963 39.15579 891 ft 139 kts 340°
2026-05-07 20:48 21.63848 39.15219 731 ft 134 kts 340°
2026-05-07 20:49 21.64718 39.14875 555 ft 133 kts 340°
2026-05-07 20:49 21.65615 39.14526 387 ft 139 kts 338°
2026-05-07 20:49 21.66523 39.14163 271 ft 139 kts 339°
2026-05-07 20:49 21.67412 39.13811 54 ft 133 kts 339°
2026-05-07 20:50 21.68214 39.13496 36 ft 109 kts 340°
2026-05-07 20:50 21.68778 39.13275 35 ft 65 kts 339°
2026-05-07 20:50 21.69066 39.13185 35 ft 21 kts 357°
2026-05-07 20:50 21.69206 39.13206 34 ft 16 kts 12°
2026-05-07 20:51 21.69293 39.13251 36 ft 11 kts 61°
2026-05-07 20:51 21.69260 39.13305 37 ft 10 kts 160°
2026-05-07 20:51 21.69203 39.13328 37 ft 8 kts 160°
2026-05-07 20:51 21.69148 39.13349 37 ft 9 kts 160°
2026-05-07 20:52 21.69092 39.13372 37 ft 8 kts 159°
2026-05-07 20:52 21.69036 39.13395 37 ft 9 kts 159°
2026-05-07 20:52 21.68974 39.13420 37 ft 10 kts 159°
2026-05-07 20:52 21.68907 39.13448 37 ft 11 kts 159°
2026-05-07 20:53 21.68835 39.13477 37 ft 11 kts 160°
2026-05-07 20:53 21.68761 39.13506 37 ft 11 kts 160°
2026-05-07 20:53 21.68692 39.13533 37 ft 11 kts 160°
2026-05-07 20:53 21.68617 39.13562 37 ft 12 kts 160°
2026-05-07 20:54 21.68537 39.13594 37 ft 12 kts 160°
2026-05-07 20:54 21.68460 39.13623 37 ft 12 kts 160°
2026-05-07 20:54 21.68385 39.13653 37 ft 11 kts 159°
2026-05-07 20:54 21.68315 39.13682 37 ft 11 kts 159°
2026-05-07 20:55 21.68246 39.13714 37 ft 11 kts 148°
2026-05-07 20:55 21.68233 39.13788 37 ft 11 kts 75°
2026-05-07 20:55 21.68258 39.13865 37 ft 11 kts 71°
2026-05-07 20:55 21.68284 39.13942 36 ft 11 kts 70°
2026-05-07 20:56 21.68309 39.14016 38 ft 10 kts 70°
2026-05-07 20:56 21.68335 39.14089 37 ft 11 kts 70°
2026-05-07 20:56 21.68360 39.14163 37 ft 11 kts 71°
2026-05-07 20:56 21.68384 39.14238 37 ft 11 kts 71°
2026-05-07 20:57 21.68408 39.14313 37 ft 11 kts 68°
2026-05-07 20:57 21.68434 39.14385 37 ft 10 kts 69°
2026-05-07 20:57 21.68460 39.14459 37 ft 11 kts 70°
2026-05-07 20:57 21.68485 39.14532 37 ft 10 kts 70°
2026-05-07 20:58 21.68510 39.14606 37 ft 11 kts 70°
2026-05-07 20:58 21.68535 39.14681 37 ft 11 kts 69°
2026-05-07 20:58 21.68562 39.14758 37 ft 11 kts 69°
2026-05-07 20:58 21.68590 39.14834 37 ft 11 kts 68°
2026-05-07 20:59 21.68619 39.14913 37 ft 12 kts 68°
2026-05-07 20:59 21.68650 39.14995 37 ft 12 kts 68°
2026-05-07 20:59 21.68679 39.15082 37 ft 12 kts 71°
2026-05-07 20:59 21.68708 39.15168 37 ft 12 kts 70°
2026-05-07 21:00 21.68737 39.15257 35 ft 12 kts 70°
2026-05-07 21:00 21.68746 39.15286 35 ft 1 kts 71°
2026-05-07 21:03 21.68756 39.15315 34 ft 18 kts 70°
2026-05-07 21:03 21.68800 39.15449 33 ft 17 kts 69°
2026-05-07 21:03 21.68842 39.15565 35 ft 16 kts 69°
2026-05-07 21:03 21.68881 39.15676 36 ft 15 kts 72°
2026-05-07 21:04 21.68915 39.15785 37 ft 15 kts 70°
2026-05-07 21:04 21.68955 39.15889 37 ft 15 kts 69°
2026-05-07 21:04 21.68993 39.15996 37 ft 15 kts 69°
2026-05-07 21:04 21.69029 39.16101 37 ft 15 kts 70°
2026-05-07 21:05 21.69065 39.16206 37 ft 15 kts 70°
2026-05-07 21:05 21.69101 39.16311 37 ft 15 kts 69°
2026-05-07 21:05 21.69138 39.16415 37 ft 15 kts 69°
2026-05-07 21:05 21.69175 39.16520 37 ft 15 kts 69°
2026-05-07 21:06 21.69210 39.16625 37 ft 15 kts 70°
2026-05-07 21:06 21.69176 39.16717 37 ft 15 kts 152°
2026-05-07 21:06 21.69079 39.16758 37 ft 15 kts 159°
2026-05-07 21:06 21.68986 39.16795 37 ft 14 kts 160°
2026-05-07 21:07 21.68893 39.16832 37 ft 14 kts 160°
2026-05-07 21:07 21.68801 39.16868 37 ft 14 kts 160°
2026-05-07 21:07 21.68708 39.16905 37 ft 14 kts 160°
2026-05-07 21:07 21.68615 39.16942 37 ft 14 kts 159°
2026-05-07 21:08 21.68523 39.16979 37 ft 14 kts 159°
2026-05-07 21:08 21.68433 39.17016 37 ft 14 kts 159°
2026-05-07 21:08 21.68344 39.17051 37 ft 14 kts 159°
2026-05-07 21:08 21.68255 39.17086 37 ft 14 kts 160°
2026-05-07 21:09 21.68163 39.17122 37 ft 14 kts 160°
2026-05-07 21:09 21.68068 39.17159 37 ft 15 kts 160°
2026-05-07 21:09 21.67969 39.17197 37 ft 15 kts 160°
2026-05-07 21:09 21.67867 39.17236 37 ft 16 kts 160°
2026-05-07 21:10 21.67761 39.17277 37 ft 16 kts 158°
2026-05-07 21:10 21.67667 39.17317 38 ft 14 kts 159°
2026-05-07 21:10 21.67578 39.17353 37 ft 14 kts 159°
2026-05-07 21:10 21.67489 39.17390 37 ft 14 kts 159°
2026-05-07 21:11 21.67402 39.17426 37 ft 14 kts 159°
2026-05-07 21:11 21.67313 39.17457 37 ft 12 kts 161°
2026-05-07 21:11 21.67167 39.17410 37 ft 13 kts 215°
2026-05-07 21:12 21.67097 39.17349 37 ft 13 kts 221°
2026-05-07 21:12 21.67031 39.17282 37 ft 13 kts 204°
2026-05-07 21:12 21.66942 39.17265 37 ft 13 kts 185°
2026-05-07 21:12 21.66914 39.17263 37 ft 1 kts 191°
2026-05-07 21:13 21.66903 39.17260 37 ft 2 kts 193°
2026-05-07 21:13 21.66890 39.17247 37 ft 3 kts 226°
2026-05-07 21:13 21.66879 39.17227 37 ft 4 kts 248°
2026-05-07 21:13 21.66874 39.17198 37 ft 3 kts 251°
2026-05-07 21:14 21.66869 39.17182 37 ft 0 kts 252°
2026-05-07 21:17 21.66869 39.17183 37 ft 0 kts 252°